Tracking 35237 objects as of 6-Sep-2026
HD Live streaming from Space Station
objects crossing your sky now

STARLINK-36810

Track STARLINK-36810 now!
10-day predictions
STARLINK-36810 is classified as:


NORAD ID: 67898
Int'l Code: 2026-035V
Launch date: February 21, 2026
Source: United States (US)
Launch site: AIR FORCE WESTERN TEST RANGE (AFWTR)
Your satellite tracking list
Your tracking list is empty




NASA's NSSDC Master Catalog

Two Line Element Set (TLE):
1 67898U 26035V   26249.34488923  .00042194  00000-0  13002-2 0  9996
2 67898  97.2886 181.3916 0000983  88.2607 271.8749 15.33489847 31677
Source of the keplerian elements: AFSPC